Location: Forst
(46.9333°N, 15.4333°E)
Time: 15:01:08
(UTC+00:00)

NOSS 3-3 (A) - Pass Details

Date: 01 December 2020
Orbit: 818 x 1394 km, 63.4° (Epoch: 22 January)

Event Time Altitude Azimuth Distance (km) Brightness Sun altitude
Rises 17:32:38 0° 319° (NW) 3,949 7.6 -23.4°
Reaches altitude 10° 17:35:11 10° 320° (NW) 3,065 7.0 -23.8°
Maximum altitude 17:42:42 88° 50° (NE) 1,276 4.4 -25.1°
Enters shadow 17:48:04 25° 141° (SE) 2,414 5.7 -26.0°
